Regional Weather Roundup
Issued by NWS

Home | Current Version | Previous Version | Text Only | Print | Product List | Glossary Off
Versions: 1 2 3 4 5 6 7 8 9 10 11 12 13 14 15 16 17 18 19 20 21 22 23 24 25 26 27 28 29 30 31 32 33 34 35 36 37 38 39 40 41 42 43 44 45 46 47 48 49 50

000
ASUS43 KIND 191109
RWRIN

WEATHER ROUNDUP FOR INDIANA
NATIONAL WEATHER SERVICE INDIANAPOLIS IN
700 AM EDT SUN APR 19 2015

NOTE: "FAIR" INDICATES FEW OR NO CLOUDS BELOW 12,000 FEET WITH NO
SIGNIFICANT WEATHER AND/OR OBSTRUCTIONS TO VISIBILITY.

* - STATION DOES NOT REPORT WEATHER SUCH AS PRECIPITATION OR FOG.

+ - STATION NOT QUALITY CONTROLLED BY THE NATIONAL WEATHER SERVICE.
    USE DATA WITH CAUTION...ESPECIALLY DEWPOINT AND RELATIVE
    HUMIDITY OBSERVATIONS.

INZ001>003-010>013-019-020-191200-
NORTHWEST INDIANA

CITY           SKY/WX    TMP DP  RH WIND       PRES   REMARKS
GARY /AIRPORT/ MOCLDY    55  27  33 SE14G25   29.88F
KNOX *+        PTCLDY    52  10  19 E12       29.89F
MICHIGAN CITY+ PTCLDY    52  25  35 E8        29.90F
MONTICELLO +   PTCLDY    51  40  64 E6        29.86F
RENSSELAER +   PTCLDY    50  39  66 E13       29.86F
VALPARAISO     MOCLDY    50  33  52 E12       29.89F

$$

LMZ046-743>745-191200-
SOUTHERN LAKE MICHIGAN

STATION/POSITION TIME  TEMP WIND        PRES
                       AIR  DIR/SP/G
                 (UTC) (F)  (DEG/KT/KT) (MB)
BURNS HARBOR     1100   55  120/ 13/ 25 1012.5S
MICHIGAN CITY    1100   54   90/ 14/ 20   N/A
4NW MICH CITY    1100   52  130/ 14/ 19   N/A

$$

INZ004-005-014>016-021>024-191200-
NORTH CENTRAL INDIANA

CITY           SKY/WX    TMP DP  RH WIND       PRES   REMARKS
GOSHEN         MOCLDY    50  31  48 E12       29.94F
LOGANSPORT +   MOCLDY    50  37  62 E13       29.88F
PERU/GRISSOM   CLOUDY    49  39  67 E13       29.87F
ROCHESTER +    MOCLDY    52  36  54 E14       29.91F
SOUTH BEND     PTCLDY    54  27  35 E15G24    29.93F
WARSAW +       MOCLDY    50  32  50 E12       29.92F

$$

INZ006>009-017-018-025>027-191200-
NORTHEAST INDIANA

CITY           SKY/WX    TMP DP  RH WIND       PRES   REMARKS
ANGOLA *+      CLEAR     46  30  53 E14       29.97F
AUBURN +       PTCLDY    46  32  57 E14       29.97S
FORT WAYNE     MOCLDY    48  34  58 E15       29.94F
HUNTINGTON +   MOCLDY    47  33  56 E9        29.92F

$$

INZ028-029-035-036-043>045-051>053-191200-
WEST CENTRAL INDIANA

CITY           SKY/WX    TMP DP  RH WIND       PRES   REMARKS
CRAWFORDSVL +  CLOUDY    55  40  59 E10G17    29.81F
GREENCASTLE +  CLOUDY    59  45  58 E10       29.80F
LAFAYETTE      MOCLDY    52  40  63 E13       29.83F
TERRE HAUTE    CLOUDY    61  48  62 E8        29.77F

$$

INZ030>032-037>040-046>048-054>057-064-065-191200-
CENTRAL INDIANA

CITY           SKY/WX    TMP DP  RH WIND       PRES   REMARKS
CP ATTERBURY + CLOUDY    59  48  67 E6        29.81F
COLUMBUS       CLOUDY    59  46  63 E9        29.81
FISHERS *+     CLOUDY    52  46  82 NE3       29.84F
FRANKFORT +    MOCLDY    53  41  65 NE13G20   29.86F
GREENWOOD *+   CLOUDY    59  45  58 E8        29.83F
INDIANAPOLIS   CLOUDY    61  45  55 E12       29.80F
-EAGLE CREEK   CLOUDY    57  46  66 E6        29.82F
KOKOMO *+      MOCLDY    48  39  71 E12       29.88F
MARION +       MOCLDY    49  38  66 E13G20    29.89F
MT COMFORT *+  CLOUDY    57  37  47 E9        29.84F
SHELBYVILLE    CLOUDY    62  47  57 E13       29.82F
ZIONSVILLE +   MOCLDY    54  41  62 NE10      29.85F

$$

INZ033-034-041-042-049-050-058-059-191200-
EAST CENTRAL INDIANA

CITY           SKY/WX    TMP DP  RH WIND       PRES   REMARKS
MUNCIE         MOCLDY    52  40  63 E9        29.88F

$$

INZ060-061-067>069-081>083-085>088-191200-
SOUTHWEST INDIANA

CITY           SKY/WX    TMP DP  RH WIND       PRES   REMARKS
EVANSVILLE     LGT RAIN  62  57  83 NE3       29.73F
HUNTINGBURG *+ CLOUDY    63  48  59 E9        29.74F
WASHINGTON +   CLOUDY    62  48  59 CALM      29.74F

$$

INZ062-063-066-070>080-084-089>092-191200-
SOUTH CENTRAL AND SOUTHEAST INDIANA

CITY           SKY/WX    TMP DP  RH WIND       PRES   REMARKS
BEDFORD +      LGT RAIN  64  43  45 E10       29.78F
BLOOMINGTON    CLOUDY    65  45  48 SE12      29.78F
MADISON *+     CLOUDY    63  41  45 E8        29.83S
NORTH VERNON + CLOUDY    64  43  45 E6        29.82F

$$




USA.gov is the U.S. government's official web portal to all federal, state and local government web resources and services.